Orbital Elements at Epoch 2459200.5 (2020-Dec-17.0) TDB
Reference: JPL 15 (heliocentric ecliptic J2000)
Element | Value | Uncertainty (1-sigma) | Units |
e | .164875649315112 | 4.074e-08 | |
a | 2.680754331073818 | 1.9332e-08 | au |
q | 2.238763220083724 | 1.1088e-07 | au |
i | 11.1736221810999 | 7.984e-06 | deg |
node | 338.1278767358614 | 2.3952e-05 | deg |
peri | 109.4505453642166 | 3.5829e-05 | deg |
M | 88.81681739018777 | 2.4327e-05 | deg |
tp | 2458804.972524420055 (2019-Nov-17.47252442) | 0.00010783 | TDB |
period | 1603.186146416806 4.39 | 1.7342e-05 4.748e-08 | d yr |
n | .2245528386111722 | 2.429e-09 | deg/d |
Q | 3.122745442063913 | 2.2519e-08 | au |
|
| | Orbit Determination Parameters
Additional Information
|